Weather History for McCook, NE

Change the Weather History Date:

Tuesday, February 28, 2012

  Actual Average Record
Temperature  
Mean Temperature 50 °F 34 °F  
Max Temperature 66 °F 49 °F 82 °F (2006)
Min Temperature 33 °F 20 °F -13 °F (1960)
Degree Days  
Heating Degree Days 16    
Moisture  
Dew Point 36 °F    
Average Humidity 69    
Maximum Humidity 93    
Minimum Humidity 26    
Precipitation  
Precipitation 0.05 in 0.03 in 0.54 in (1987)
Month to date precipitation 0.37 0.62  
Year to date precipitation 0.37 1.13  
Sea Level Pressure  
Sea Level Pressure 29.69 in    
Wind  
Wind Speed 16 mph (South)    
Max Wind Speed 32 mph    
Max Gust Speed 44 mph    
Visibility 8 miles    
Events      
T = Trace of Precipitation, MM = Missing Value Source: NWS Daily Summary

Daily Weather History Graph

Daily Weather History Graph

Search for Another Location

Airport:

Trip Planner

Search our weather history database for the weather conditions in past years. The results will help you decide how hot, cold, wet, or windy it might be!

Date:

Astronomy

Feb. 28, 2012 Rise Set
Actual Time 7:18 AM CST 6:32 PM CST
Civil Twilight 6:50 AM CST 6:59 PM CST
Nautical Twilight 6:19 AM CST 7:31 PM CST
Astronomical Twilight 5:47 AM CST 8:02 PM CST
Moon 10:26 AM CST (2/28) 12:27 AM CST (2/28)
Length of Visible Light 12h 09m
Length of Day
11h 14m
Waxing Crescent, 38% of the Moon is Illuminated
Feb 28
Waxing Crescent
Feb 29
First Quarter
Mar 8
Full
Mar 14
Last Quarter
Mar 22
New

Hourly Weather History & Observations

Time (CST) Temp. Windchill Dew Point Humidity Pressure Visibility Wind Dir Wind Speed Gust Speed Precip Events Conditions
12:53 AM 37.9 °F 30.9 °F 23.0 °F 55% 30.09 in 10.0 mi SE 10.4 mph - N/A   Overcast
1:53 AM 37.0 °F 29.3 °F 23.0 °F 57% 30.05 in 10.0 mi SE 11.5 mph - N/A   Overcast
2:00 AM 37.4 °F 29.3 °F 23.0 °F 56% 30.02 in 10.0 mi SE 12.7 mph - N/A   Overcast
2:53 AM 37.0 °F 29.3 °F 23.0 °F 57% 30.00 in 10.0 mi SE 11.5 mph - N/A   Overcast
3:53 AM 37.9 °F 29.2 °F 25.0 °F 60% 29.95 in 10.0 mi SSE 15.0 mph - N/A   Overcast
4:53 AM 37.9 °F 31.5 °F 27.0 °F 65% 29.93 in 10.0 mi SSE 9.2 mph - N/A   Overcast
5:23 AM 39.2 °F 32.0 °F 28.4 °F 65% 29.88 in 10.0 mi SSE 11.5 mph - N/A   Overcast
5:53 AM 39.0 °F 32.3 °F 30.0 °F 70% 29.89 in 10.0 mi SE 10.4 mph - N/A   Overcast
6:53 AM 39.9 °F 33.9 °F 35.1 °F 83% 29.84 in 10.0 mi SE 9.2 mph - N/A   Overcast
7:07 AM 39.2 °F 32.5 °F 35.6 °F 87% 29.80 in 10.0 mi SE 10.4 mph - N/A   Overcast
7:53 AM 41.0 °F 34.3 °F 37.9 °F 89% 29.79 in 5.0 mi SE 11.5 mph - N/A   Overcast
8:53 AM 45.0 °F 37.9 °F 43.0 °F 93% 29.75 in 2.0 mi SSE 16.1 mph 25.3 mph N/A   Overcast
9:40 AM 46.4 °F 39.2 °F 44.6 °F 93% 29.69 in 3.0 mi SSE 18.4 mph 31.1 mph N/A   Overcast
9:53 AM 48.0 °F - 45.0 °F 89% 29.70 in 3.0 mi SSE 19.6 mph 31.1 mph N/A   Overcast
10:16 AM 50.0 °F - 46.4 °F 87% 29.66 in 5.0 mi South 21.9 mph 34.5 mph N/A   Overcast
10:53 AM 50.0 °F - 46.0 °F 86% 29.65 in 5.0 mi SSE 23.0 mph 32.2 mph N/A   Overcast
11:53 AM 50.0 °F - 46.9 °F 89% 29.61 in 4.0 mi SSE 18.4 mph - N/A   Overcast
12:10 PM 55.4 °F - 48.2 °F 77% 29.57 in 7.0 mi SSE 21.9 mph 31.1 mph N/A   Overcast
12:25 PM 60.8 °F - 50.0 °F 68% 29.55 in 8.0 mi South 28.8 mph 40.3 mph N/A   Overcast
12:33 PM 60.8 °F - 48.2 °F 63% 29.54 in 9.0 mi South 32.2 mph 43.7 mph N/A   Mostly Cloudy
12:53 PM 61.0 °F - 48.9 °F 64% 29.51 in 10.0 mi South 28.8 mph 40.3 mph N/A   Partly Cloudy
1:53 PM 62.1 °F - 51.1 °F 67% 29.43 in 10.0 mi South 27.6 mph 39.1 mph 0.05 in   Mostly Cloudy
2:53 PM 64.0 °F - 48.0 °F 56% 29.35 in 10.0 mi South 19.6 mph 28.8 mph N/A   Mostly Cloudy
3:53 PM 64.0 °F - 28.0 °F 26% 29.35 in 10.0 mi WSW 20.7 mph 31.1 mph 0.00 in   Overcast
4:53 PM 57.0 °F - 30.0 °F 36% 29.39 in 10.0 mi WNW 28.8 mph 41.4 mph N/A   Overcast
5:53 PM 50.0 °F - 34.0 °F 54% 29.49 in 10.0 mi WNW 29.9 mph 43.7 mph N/A   Scattered Clouds
6:53 PM 46.0 °F 38.8 °F 34.0 °F 63% 29.52 in 10.0 mi WNW 18.4 mph 25.3 mph N/A   Clear
7:53 PM 44.1 °F 36.2 °F 30.9 °F 60% 29.57 in 10.0 mi WNW 18.4 mph 32.2 mph N/A   Partly Cloudy
8:53 PM 37.9 °F 27.9 °F 28.0 °F 68% 29.59 in 10.0 mi West 19.6 mph 27.6 mph N/A   Clear
9:53 PM 35.1 °F 25.2 °F 27.0 °F 72% 29.63 in 10.0 mi West 16.1 mph 23.0 mph N/A   Clear
10:53 PM 34.0 °F 23.4 °F 25.0 °F 70% 29.68 in 10.0 mi West 17.3 mph 24.2 mph N/A   Clear
11:53 PM 33.1 °F 21.9 °F 24.1 °F 70% 29.68 in 10.0 mi West 18.4 mph 24.2 mph N/A   Clear